Regional Weather Roundup
Issued by NWS

Home | Current Version | Previous Version | Text Only | Print | Product List | Glossary Off
Versions: 1 2 3 4 5 6 7 8 9 10 11 12 13 14 15 16 17 18 19 20 21 22 23 24 25 26 27 28 29 30 31 32 33 34 35 36 37 38 39 40 41 42 43 44 45 46 47 48 49 50

000
ASUS43 KFSD 201302
RWRSD

WEATHER ROUNDUP FOR SOUTH DAKOTA
NATIONAL WEATHER SERVICE SIOUX FALLS SD
700 AM CST SAT DEC 20 2014

NOTE: "FAIR" INDICATES FEW OR NO CLOUDS BELOW 12,000 FEET WITH NO
SIGNIFICANT WEATHER AND/OR OBSTRUCTIONS TO VISIBILITY.


SDZ001>005-009-010-012>017-201400-
NORTHWEST AND NORTH CENTRAL SOUTH DAKOTA

CITY           SKY/WX    TMP DP  RH WIND       PRES   REMARKS
BUFFALO          N/A     34  25  69 W9        29.80R WCI  27
FAITH            N/A     27  22  81 SW7       29.90R WCI  19
MOBRIDGE       PTCLDY    19  16  88 SE9       29.90F WCI   8
$$

SDZ012>016-024>037-041>051-057-063-072>074-201400-
SOUTHWEST AND SOUTH CENTRAL SOUTH DAKOTA

CITY           SKY/WX    TMP DP  RH WIND       PRES   REMARKS
RAPID CTY ARPT CLOUDY    36  23  59 NW9       29.89R
PIERRE         FOG       20  17  88 SE5       29.96R VSB 1/4 WCI  13
CUSTER         MOCLDY    33  17  51 W6        29.89R WCI  28
ELLSWORTH AFB  CLOUDY    32  24  73 NW6       29.89R WCI  26
PHILIP         CLEAR     17  14  88 E5        29.92F WCI  10
PINE RIDGE     PTCLDY    20  15  81 CALM      29.92S
WINNER         FAIR      24  16  71 SW3       29.97R
$$

SDZ004>011-016>023-039-040-201400-
NORTHEAST SOUTH DAKOTA

CITY           SKY/WX    TMP DP  RH WIND       PRES   REMARKS
ABERDEEN       FOG       26  25  96 S10       30.01S VSB 3/4 WCI  16
WATERTOWN      CLOUDY    28  26  92 S12       30.01R FOG     WCI  18
SISSETON         N/A     30  28  92 SW8       30.02R WCI  22
$$

SDZ017-020-022-023-036>040-048>070-201400-
SOUTHEAST SOUTH DAKOTA

CITY           SKY/WX    TMP DP  RH WIND       PRES   REMARKS
SIOUX FALLS    CLOUDY    31  29  92 S7        30.06R FOG     WCI  24
HURON          FOG       25  24  96 S10       30.02S VSB 3/4 WCI  15
MITCHELL       FOG       27  27 100 S12       30.05S VSB 1/4 WCI  17
YANKTON        CLOUDY    34  30  86 S8        30.07R WCI  27
$$

ABBREVIATIONS USED IN REMARKS
   TC - TEMPERATURE IN CELSIUS
  WCI - WIND CHILL INDEX
   HX - HEAT INDEX
  VSB - VISIBILITY




USA.gov is the U.S. government's official web portal to all federal, state and local government web resources and services.